Location: Newark
(43.0000°N, 1.6781°W)
Time: 03:24:28
(UTC+00:00)

Explorer 7 - Pass Details

Date: 19 April 2021
Orbit: 484 x 677 km, 50.3° (Epoch: 07 May)

Event Time Altitude Azimuth Distance (km) Brightness Sun altitude
Rises 22:08:13 0° 273° (W) 2,694 10.8 -29.2°
Reaches altitude 10° 22:10:32 10° 283° (WNW) 1,836 10.0 -29.5°
Enters shadow 22:13:58 34° 337° (NNW) 968 8.5 -29.8°
Maximum altitude 22:14:23 34° 350° (N) 957 - -29.9°
Drops below altitude 10° 22:18:29 10° 56° (NE) 1,954 - -30.2°
Sets 22:21:02 0° 66° (ENE) 2,894 - -30.5°
